Location: Bazinghen
(50.8246°N, 1.6616°E)
Time: 14:05:06
(UTC+00:00)

Meteor 1-11 - Pass Details

Date: 09 April 2020
Orbit: 841 x 886 km, 81.2° (Epoch: 02 June)

Event Time Altitude Azimuth Distance (km) Brightness Sun altitude
Rises 19:33:25 0° 346° (NNW) 3,488 8.0 -8.8°
Reaches altitude 10° 19:35:53 10° 346° (NNW) 2,540 7.3 -9.2°
Maximum altitude 19:41:40 84° 261° (W) 880 4.4 -10.0°
Drops below altitude 10° 19:47:20 10° 172° (S) 2,491 6.3 -10.8°
Sets 19:49:44 0° 172° (S) 3,417 7.0 -11.1°
